Location: Mound City (historical)
(34.0564°N, 117.2656°W)
Time: 02:33:41
(UTC+00:00)

ARGOS - Pass Details

Date: 08 September 2024
Orbit: 818 x 834 km, 98.4° (Epoch: 10 October)

Event Time Altitude Azimuth Distance (km) Brightness Sun altitude
Rises 12:51:45 0° 8° (N) 3,353 6.6 -8.2°
Reaches altitude 10° 12:54:08 10° 4° (N) 2,417 5.8 -7.7°
Maximum altitude 12:59:23 60° 286° (WNW) 936 3.2 -6.7°
Drops below altitude 10° 13:04:37 10° 207° (SSW) 2,407 5.2 -5.6°
Sets 13:06:59 0° 204° (SSW) 3,338 6.0 -5.1°
